Flag for Spain

Past Weather in Logroño, Spain — Yesterday and Last 2 Weeks

Now
66 °F

Partly sunny.


Feels Like: 66 °F
Forecast: 69 / 57 °F
Wind: 10 mph from East

Location: Logrono / Agoncillo
Current Time: Sep 19, 2020 at 12:51:16 pm
Latest Report: Sep 19, 2020 at 12:00 pm
Visibility: N/A
Pressure29.92 "Hg
Humidity: 83%
Dew Point: 61 °F
Location of LogroñoLocation

Past Weather in Logroño — Graph

°F

Logroño Temperature Yesterday

Maximum temperature yesterday: 79 °F (at 3:30 pm)
Minimum temperature yesterday: 66 °F (at 4:30 am)
Average temperature yesterday: 71 °F

High & Low Weather Summary for the Past Weeks

 TemperatureHumidityPressure
High91 °F (Sep 13, 5:30 pm)94% (Sep 17, 6:30 am)30.33 "Hg (Sep 17, 6:30 am)
Low50 °F (Sep 8, 7:30 am)18% (Sep 8, 5:00 pm)29.86 "Hg (Sep 18, 4:30 pm)
Average71 °F57%30.12 "Hg
* Reported Sep 4 11:00 am — Sep 19 11:30 am, Logroño. Weather by CustomWeather, © 2020

Note: Actual official high and low records may vary slightly from our data, if they occured in-between our weather recording intervals... More about our weather records

Logroño Weather History for the Previous 24 Hours

Scroll right to see more
 ConditionsComfort  
Time TempWeatherWind HumidityBarometerVisibility
11:30 am
Sat, Sep 19
64 °FLight rain. Partly sunny.8 mph83%29.92 "HgN/A
11:00 am64 °FPartly sunny.5 mph83%29.92 "HgN/A
10:30 am63 °FScattered clouds.5 mph83%29.92 "HgN/A
10:00 am63 °FScattered clouds.6 mph83%29.92 "HgN/A
9:30 am63 °FPassing clouds.3 mph88%29.92 "HgN/A
9:00 am61 °FPassing clouds.3 mph94%29.92 "HgN/A
8:30 am61 °FPassing clouds.2 mph94%29.92 "HgN/A
8:00 am61 °FPassing clouds.5 mph94%29.89 "HgN/A
7:30 am61 °FClear.2 mph94%29.89 "Hg10 mi
7:00 am61 °FPassing clouds.No wind94%29.89 "HgN/A
6:30 am61 °FLight rain. Clear.1 mph94%29.89 "HgN/A
6:00 am61 °FLight rain. Passing clouds.2 mph94%29.89 "HgN/A
5:30 am61 °FLight rain. Passing clouds.5 mph94%29.89 "Hg6 mi
5:00 am64 °FPassing clouds.3 mph83%29.89 "HgN/A
4:30 am64 °FLight rain. Mostly cloudy.7 mph78%29.89 "Hg4 mi
4:00 am64 °FPassing clouds.1 mph73%29.89 "HgN/A
3:30 am64 °FPassing clouds.5 mph73%29.89 "HgN/A
3:00 am63 °FPassing clouds.3 mph83%29.92 "HgN/A
2:30 am63 °FClear.1 mph83%29.92 "Hg10 mi
2:00 am64 °FPassing clouds.5 mph78%29.92 "HgN/A
1:30 am64 °FClear.2 mph78%29.92 "Hg10 mi
1:00 am64 °FClear.2 mph83%29.92 "Hg10 mi
12:30 am64 °FClear.3 mph88%29.92 "Hg10 mi
12:00 am68 °FPassing clouds.6 mph69%29.92 "HgN/A
11:30 pm
Fri, Sep 18
66 °FPassing clouds.6 mph83%29.92 "HgN/A
11:00 pm66 °FPassing clouds.5 mph88%29.92 "HgN/A
10:30 pm68 °FLight rain. Passing clouds.5 mph83%29.92 "HgN/A
10:00 pm68 °FPassing clouds.12 mph83%29.92 "HgN/A
9:30 pm68 °FPassing clouds.14 mph78%29.92 "HgN/A
9:00 pm70 °FPassing clouds.14 mph73%29.89 "HgN/A
8:30 pm70 °FPassing clouds.13 mph73%29.89 "HgN/A
8:00 pm72 °FScattered clouds.12 mph69%29.89 "HgN/A
7:30 pm72 °FScattered clouds.12 mph65%29.89 "HgN/A
7:00 pm73 °FPassing clouds.15 mph61%29.89 "HgN/A
6:30 pm75 °FPassing clouds.15 mph57%29.86 "HgN/A
5:30 pm79 °FPassing clouds.15 mph45%29.86 "HgN/A
5:00 pm79 °FScattered clouds.17 mph48%29.86 "HgN/A
4:30 pm79 °FPartly sunny.20 mph45%29.86 "HgN/A
4:00 pm79 °FScattered clouds.17 mph48%29.89 "HgN/A
3:30 pm79 °FScattered clouds.13 mph54%29.89 "HgN/A
3:00 pm77 °FScattered clouds.14 mph61%29.89 "HgN/A
2:30 pm77 °FScattered clouds.12 mph61%29.89 "HgN/A
2:00 pm73 °FBroken clouds.9 mph69%29.92 "HgN/A
1:30 pm73 °FScattered clouds.16 mph74%29.92 "HgN/A
1:00 pm73 °FScattered clouds.15 mph74%29.92 "HgN/A
12:30 pm72 °FScattered clouds.15 mph73%29.92 "HgN/A
12:00 pm72 °FScattered clouds.14 mph73%29.95 "HgN/A
Weather by CustomWeather, © 2020

See weather overview